Regional Weather Roundup
Issued by NWS

Home | Current Version | Previous Version | Text Only | Print | Product List | Glossary On
Versions: 1 2 3 4 5 6 7 8 9 10 11 12 13 14 15 16 17 18 19 20 21 22 23 24 25 26 27 28 29 30 31 32 33 34 35 36 37 38 39 40 41 42 43 44 45 46 47 48 49 50
000
ASUS43 KMKX 221021
RWRWI

WISCONSIN REGIONAL WEATHER ROUNDUP
NATIONAL WEATHER SERVICE MILWAUKEE/SULLIVAN WI
500 AM CDT TUE JUL 22 2014

NOTE: "FAIR" INDICATES FEW OR NO CLOUDS BELOW 12,000 FEET WITH NO
SIGNIFICANT WEATHER AND/OR OBSTRUCTIONS TO VISIBILITY.

WIZ001-002-006>008-014>016-023>028-221100-
NORTHWEST WISCONSIN

CITY           SKY/WX    TMP DP  RH WIND       PRES   REMARKS
SUPERIOR ARPT  CLOUDY    68  67  94 W12       29.71R
ASHLAND        CLOUDY    69  66  90 S10       29.71S
HAYWARD        CLOUDY    75  72  90 S13G18    29.76F
SIREN          MOCLDY    75  71  87 W12G17    29.77R
RICE LAKE      MOCLDY    77  71  81 S13       29.81S
LADYSMITH      CLOUDY    75  70  83 S14       29.83F
EAU CLAIRE     CLOUDY    79  73  82 SW9       29.82S HX  82
MENOMONIE      CLOUDY    79  72  79 S17       29.81F HX  82
NEW RICHMOND   CLOUDY    78  73  84 SW10      29.81R HX  81
OSCEOLA        CLOUDY    79  76  91 S9        29.81S HX  83
$$

WIZ003>005-009-010-017-018-221100-
NORTH CENTRAL WISCONSIN

CITY           SKY/WX    TMP DP  RH WIND       PRES   REMARKS
WOODRUFF       CLOUDY    73  68  84 S9        29.84F
RHINELANDER    CLOUDY    72  67  84 S12       29.88F
EAGLE RIVER    CLOUDY    72  65  81 S3        29.87F
LAND O LAKES   CLOUDY    73  67  82 S5        29.87S
PHILLIPS       LGT RAIN  73  70  88 SW10G21   29.82F
TOMAHAWK       CLOUDY    71  67  85 S5        29.86F
MEDFORD        CLOUDY    72  68  88 S10       29.87F
MERRILL        CLOUDY    73  69  88 S6        29.88F
$$

WIZ029-030-035-036-043>047-221100-
CENTRAL WISCONSIN

CITY           SKY/WX    TMP DP  RH WIND       PRES   REMARKS
WAUSAU         CLOUDY    73  68  84 S10       29.87F
MOSINEE        CLOUDY    72  70  94 S10       29.91R
MARSHFIELD     CLOUDY    73  68  84 S12       29.88R
STEVENS POINT  CLOUDY    71  67  85 S9        29.91S
WAUPACA        CLOUDY    74  70  88 S9        29.92F
WAUTOMA        CLOUDY    74  69  84 S6        29.92F
WISC RAPIDS    CLOUDY    75  68  78 SW10      29.90F
CAMP DOUGLAS   CLOUDY    75  71  85 S8        29.89F
$$

WIZ011>013-019>022-031-037>040-048>050-221100-
NORTHEAST WISCONSIN

CITY           SKY/WX    TMP DP  RH WIND       PRES   REMARKS
ANTIGO         CLOUDY    69  67  94 S8        29.92S
STURGEON BAY   PTCLDY    68  63  83 S12       29.94F
GREEN BAY      PTCLDY    75  68  78 S14G21    29.93F
MANITOWOC      CLEAR     60  59  96 E5        29.97F FOG
APPLETON       PTCLDY    72  64  78 S14       29.94F
CLINTONVILLE   MOCLDY    72  68  88 S10       29.90F
OSHKOSH        PTCLDY    73  68  84 S13G22    29.94F
$$

WIZ032>034-041-042-053>061-221100-
SOUTHWEST WISCONSIN

CITY           SKY/WX    TMP DP  RH WIND       PRES   REMARKS
LA CROSSE      MOCLDY    78  69  73 S10       29.86F HX  80
SPARTA         MOCLDY    76  66  72 S5        29.89S
VIROQUA        FAIR      74  68  81 S7        29.93S
BOSCOBEL       CLOUDY    77  67  71 SW8       29.92F
PRAIRIE DU CHI CLOUDY    77  65  65 SE6       29.91F
PLATTEVILLE    FAIR      73  68  86 S8        29.99S
$$

WIZ056-057-062-063-064-067-068-221100-
SOUTH CENTRAL WISCONSIN

CITY           SKY/WX    TMP DP  RH WIND       PRES   REMARKS
BARABOO/DELLS  CLOUDY    73  66  77 SW12      29.93F
LONE ROCK      CLOUDY    79  69  71 CALM      29.94F HX  81
WATERTOWN      CLEAR     70  67  91 S5        29.99F
MADISON        PTCLDY    74  67  78 S13       29.97F
MIDDLETON      FAIR      74  67  78 S13       29.97F
MONROE         PTCLDY    70  68  94 S15       30.00S
JANESVILLE     MOCLDY    72  64  78 S9        30.01S
$$

WIZ051-052-058>065-066-070>072-221100-
SOUTHEAST WISCONSIN

CITY           SKY/WX    TMP DP  RH WIND       PRES   REMARKS
MILWAUKEE      CLEAR     71  65  81 SW10      30.01S
WAUKESHA       PTCLDY    68  63  83 S6        30.02F
MILWAUKEE/TIMM PTCLDY    70  63  78 S8        30.01F
RACINE         CLEAR     70  65  84 SW7       30.04R
BURLINGTON     CLEAR     67  64  92 S3        30.02F
KENOSHA        CLEAR     69  65  86 SW7       30.03S
FOND DU LAC    CLEAR     73  66  78 S13G23    29.96F
SHEBOYGAN      PTCLDY    70  66  87 S9        29.98F
WEST BEND      CLOUDY    70  63  78 S7        30.00S
JUNEAU         CLEAR     70  53  53 SE9       29.99F
$$

LSZ147-162-221100-
LAKE SUPERIOR

STATION/POSITION TIME  TEMP    WIND        PRES    WAVE
                       AIR SEA DIR/SP/G            HT/PER
                 (UTC) (F)     (DEG/KT/KT) (MB)    (FT/S)
W MID LAKE BUOY  0950   51 40  120/ 14/ 17 1006.4F   2/ 4
PORT WING        0900   69     140/  5/ 10 1005.4F
SAXON HARBOR     0920          190/  7/ 24 1005.8F
$$

LMZ867-665-643>646-221100-
LAKE MICHIGAN

STATION/POSITION TIME  TEMP    WIND        PRES    WAVE
                       AIR SEA DIR/SP/G            HT/PER
                 (UTC) (F)     (DEG/KT/KT) (MB)    (FT/S)
N MID LAKE BUOY  0950   62 56  200/ 14/ 16 1013.6F   2/ 4
NORTHPORT PIER   0900   63     140/  7/  9 1013.9F
KEWAUNEE LAKESHO 1000   55     180/ 10/ 12 1014.9F
SHEBOYGAN LAKESH 1000   68     180/ 16/ 16 1015.0F
PORT WASHINGTON  0900   61     190/  8/ 11 1016.3S
ATWATER BUOY     1000   56     150/  8     1017.0R
MILWAUKEE LAKESH 1000   67     180/  7/  8   N/A
S MID LAKE BUOY  0950   70 69  180/ 12/ 14 1016.9R   1
KENOSHA   LAKESH 1000   68     210/  5/  8   N/A
$$

TC  - TEMPERATURE IN CELSIUS
VSB - VISIBILITY IN STATUTE MILES
WCI - WIND CHILL INDEX
HX  - HEAT INDEX




USA.gov is the U.S. government's official web portal to all federal, state and local government web resources and services.